Total_Precipitation_Accumulation
2.43 2.68 2.61 2.41 2.53 2.65 2.92 3.17 3.37 3.11 2.85 2.60 2.24 2.04 2.06 2.23 2.46 2.19 2.17 2.13 1.90 1.84 1.74 1.64 1.55 1.60 1.78 2.02 2.22 2.42 2.73 2.96 3.17 3.38 3.56 3.79 4.08 4.44
2.50 2.69 2.62 2.48 2.61 2.67 2.86 3.17 3.53 3.56 3.02 2.44 2.26 2.13 2.28 2.26 2.45 2.16 2.05 2.13 1.92 1.74 1.63 1.59 1.55 1.54 1.59 1.76 1.97 2.17 2.32 2.48 2.68 2.84 3.01 3.17 3.31 3.59
2.34 2.50 2.55 2.69 2.77 2.75 2.88 3.05 3.36 3.64 3.25 2.60 2.46 2.44 2.58 2.52 2.40 2.14 1.90 1.83 1.66 1.66 1.52 1.44 1.43 1.48 1.55 1.62 1.78 1.97 2.06 2.17 2.38 2.56 2.74 2.91 2.96 3.10
2.33 2.48 2.37 2.60 2.81 2.76 2.86 2.85 3.01 3.40 3.26 2.93 2.83 2.76 2.75 2.61 2.57 2.39 2.03 1.83 1.76 1.79 1.56 1.45 1.42 1.41 1.46 1.50 1.62 1.80 1.95 2.05 2.14 2.21 2.28 2.44 2.62 2.80
2.36 2.36 2.32 2.56 2.57 2.69 2.82 2.77 2.78 2.94 3.18 3.06 2.95 3.03 2.96 2.83 2.79 2.56 2.34 2.29 1.93 1.84 1.76 1.65 1.63 1.61 1.59 1.59 1.61 1.70 1.83 1.96 2.08 2.21 2.31 2.38 2.46 2.56
2.38 2.32 2.27 2.31 2.39 2.53 2.62 2.73 2.81 2.94 3.10 3.11 3.11 3.21 3.17 3.20 3.25 2.99 2.79 2.68 2.33 1.91 1.94 1.83 1.77 1.67 1.57 1.51 1.52 1.62 1.76 1.96 2.12 2.21 2.29 2.37 2.43 2.44
2.40 2.31 2.16 2.18 2.28 2.35 2.24 2.42 2.61 2.75 2.79 2.89 2.96 3.18 3.22 3.31 3.29 3.17 3.01 2.99 2.78 2.27 2.11 1.99 1.93 1.81 1.77 1.74 1.65 1.62 1.66 1.76 1.97 2.13 2.20 2.30 2.39 2.41
2.46 2.41 2.26 2.13 2.08 2.02 1.92 1.97 2.12 2.27 2.45 2.72 2.81 3.00 3.18 3.35 3.57 3.62 3.45 3.24 3.03 2.72 2.64 2.46 2.20 2.11 1.93 1.77 1.77 1.62 1.48 1.49 1.57 1.72 1.88 2.05 2.25 2.44
2.35 2.35 2.05 1.87 1.99 1.88 1.91 1.90 1.90 2.05 2.20 2.47 2.63 2.71 2.97 3.21 3.52 3.61 3.64 3.56 3.33 3.14 3.03 2.85 2.52 2.27 2.01 1.88 1.86 1.59 1.43 1.35 1.34 1.38 1.46 1.63 1.81 2.03
2.16 2.20 2.14 2.06 2.08 2.15 2.07 1.91 1.78 1.90 2.07 2.01 2.02 2.19 2.48 2.92 3.17 3.22 3.40 3.44 3.29 3.08 3.02 2.92 2.61 2.37 2.12 2.00 1.96 1.66 1.48 1.44 1.41 1.32 1.27 1.36 1.52 1.67
2.01 2.02 2.03 1.97 2.12 2.06 1.95 1.89 1.86 1.91 1.89 1.88 1.82 1.86 2.01 2.28 2.68 2.86 2.95 2.92 2.76 2.50 2.42 2.44 2.32 2.30 2.22 2.09 1.91 1.80 1.59 1.42 1.35 1.36 1.33 1.31 1.39 1.53
2.03 1.98 1.92 1.83 1.88 1.85 1.79 1.89 1.86 1.87 1.94 1.87 1.73 1.64 1.58 1.78 2.20 2.37 2.48 2.57 2.42 2.29 2.01 2.00 1.98 2.09 2.15 1.93 1.78 1.75 1.70 1.65 1.53 1.40 1.35 1.34 1.47 1.44
1.98 1.95 1.87 1.89 1.69 1.64 1.62 1.62 1.66 1.71 1.83 1.85 1.79 1.71 1.72 1.74 1.85 2.07 2.28 2.41 2.37 2.13 1.99 2.03 1.99 2.04 2.05 1.91 1.77 1.70 1.73 1.80 1.77 1.71 1.66 1.67 1.73 1.66
1.91 1.86 1.87 1.82 1.63 1.59 1.52 1.49 1.55 1.50 1.47 1.59 1.61 1.57 1.59 1.61 1.70 1.90 2.12 2.26 2.31 2.13 2.08 2.17 2.14 2.11 2.08 1.89 1.69 1.57 1.60 1.75 1.91 2.00 1.98 2.06 2.05 2.13
1.80 1.86 1.81 1.70 1.50 1.33 1.35 1.36 1.29 1.23 1.34 1.46 1.48 1.41 1.41 1.46 1.56 1.74 1.90 2.09 2.09 1.98 1.90 2.04 2.13 2.14 2.12 1.93 1.69 1.57 1.56 1.58 1.69 1.90 2.14 2.26 2.24 2.27
1.84 1.84 1.70 1.60 1.40 1.27 1.31 1.27 1.20 1.26 1.38 1.41 1.43 1.42 1.41 1.44 1.48 1.56 1.72 1.87 1.95 1.84 1.81 1.88 2.06 2.26 2.20 2.00 1.93 1.74 1.69 1.64 1.58 1.74 2.07 2.34 2.53 2.59
2.09 1.92 1.75 1.64 1.50 1.40 1.40 1.45 1.50 1.54 1.49 1.46 1.53 1.59 1.57 1.48 1.44 1.52 1.74 1.84 1.83 1.76 1.80 1.87 1.98 2.21 2.24 2.13 2.07 1.88 1.85 1.75 1.66 1.78 2.02 2.16 2.33 2.53
1.95 1.78 1.76 1.73 1.65 1.62 1.63 1.64 1.63 1.63 1.59 1.63 1.65 1.67 1.65 1.57 1.52 1.55 1.70 1.80 1.80 1.76 1.77 1.83 2.07 2.33 2.37 2.13 1.80 1.74 1.77 1.73 1.73 1.94 2.09 2.07 2.09 2.16
1.88 1.84 1.82 1.80 1.71 1.68 1.72 1.71 1.65 1.64 1.70 1.70 1.71 1.72 1.81 1.85 1.85 1.82 1.83 1.95 1.97 1.92 1.85 1.91 2.09 2.29 2.27 1.97 1.67 1.52 1.67 1.83 1.99 2.09 2.19 2.13 2.00 2.00
1.75 1.78 1.77 1.79 1.81 1.82 1.80 1.79 1.75 1.76 1.76 1.77 1.83 1.88 1.99 2.06 2.13 2.09 2.04 2.02 2.05 2.10 2.10 2.06 2.05 2.13 2.24 2.17 2.00 1.84 1.77 1.91 2.11 2.18 2.14 2.12 2.06 2.07
1.73 1.72 1.68 1.68 1.74 1.77 1.77 1.76 1.77 1.82 1.86 1.93 1.95 1.99 2.07 2.10 2.07 2.05 2.05 2.13 2.16 2.24 2.19 1.97 1.92 2.11 2.31 2.52 2.30 1.94 1.83 1.87 1.96 2.02 2.09 2.18 2.18 2.16
1.70 1.65 1.64 1.65 1.71 1.78 1.82 1.82 1.84 1.88 1.97 2.07 2.08 2.09 2.13 2.13 2.07 2.08 2.17 2.23 2.19 2.18 2.19 2.13 2.22 2.36 2.45 2.47 2.22 2.01 2.00 2.03 2.05 2.08 2.08 2.01 1.96 1.92
1.72 1.67 1.65 1.59 1.59 1.64 1.69 1.73 1.78 1.88 1.93 2.01 2.08 2.13 2.19 2.18 2.13 2.18 2.26 2.35 2.41 2.41 2.50 2.51 2.49 2.46 2.34 2.28 2.23 2.10 2.04 2.17 2.26 2.23 2.13 1.96 1.64 1.39